Weather WX

World > North America > United States > Ohio

Bayard, Ohio Regional Weather

Lat: 40.75N, Lon: 81.12W
Wx Zone: OHZ032
Warning FLW WEATHER ALERT - (More Info. Click Here) Warning
Feedback

Bayard, OH Regional Weather

Expires:201907181900;;262607
ASUS41 KCLE 181812
RWRCLE
OHIO REGIONAL WEATHER ROUNDUP
NATIONAL WEATHER SERVICE WILMINGTON, OH
200 PM EDT THU JUL 18 2019

NOTE: "FAIR" INDICATES FEW OR NO CLOUDS BELOW 12,000 FEET WITH NO
SIGNIFICANT WEATHER AND/OR OBSTRUCTIONS TO VISIBILITY.


OHZ009>014-019>023-028>033-038-089-181900-
   NORTHEAST OHIO
  
CITY           SKY/WX    TMP DP  RH WIND       PRES   REMARKS
CLE-HOPKINS    PTSUNNY   88  69  53 W10       29.98S HX  92           
CLE-LAKEFRONT  FAIR      82  69  64 NW5       29.95F                  
CUY CO. ARPT   PTSUNNY  N/A N/A N/A NW7       29.97S                  
LORAIN-ELYRIA  FAIR      87  68  52 W8        29.97S HX  90           
ASHTABULA      FAIR      83  73  72 NW8       29.97S                  
AKRON-CANTON   PTSUNNY   88  70  55 W5        29.99S HX  93           
WOOSTER        FAIR      85  72  65 NW7       29.99S HX  91           
MANSFIELD      FAIR      86  71  60 W7        30.00F HX  91           
YOUNGSTOWN     PTSUNNY   86  68  54 SW3       29.97S                  
$$
 

SKY/WX - Weather  TMP - Temperature  DP - Dew Point  RH - Relative Humidity
WIND - Wind Direction/Speed PRES - Barometric Pressure VSB - Visibility
WCI - Wind Chill Index E13G22 Wind - East Wind 13 mph/Gusts of 22 mph